Location: Casone le Fosse
(44.6547°N, 12.1103°E)
Time: 11:54:53
(UTC+00:00)

ARGOS - Pass Details

Date: 29 October 2020
Orbit: 820 x 835 km, 98.4° (Epoch: 27 November)

Event Time Altitude Azimuth Distance (km) Brightness Sun altitude
Exits shadow 18:17:20 49° 143° (SE) 1,067 3.4 -24.2°
Maximum altitude 18:18:47 74° 74° (ENE) 871 3.0 -24.4°
Drops below altitude 10° 18:24:13 10° 350° (N) 2,457 5.8 -25.4°
Sets 18:26:36 0° 349° (NNW) 3,395 6.6 -25.8°
